AJISAI (EGS)

Last updated on Sat Aug 22 2026 00:02:07 GMT+0000 (Coordinated Universal Time)

1 16908U 86061A 26233.60472146 -.00000084 00000+0 96943-4 0 9998 2 16908 50.0110 306.2412 0011179 347.2344 168.0641 12.44516943488530
UTC large
Height (km)
Speed (km/s)
/
Latitude / Longitude
Inclination (degrees)
Orbital Period (minutes)
Azimuth
Elevation
Range (km)
Doppler Factor

Next 0 passes for location: London (51.5072 / 0.1276)

No passes found over London.
AJISAI (EGS)